Погода в Звонаревке

Россия / Саратовская область     51°37′18″N   46°32′01″E
темп.,
°C
ветер,
м/с
пор.,
м/с
влажн.,
%
обл.,
%
осадки,
мм/ч
давл.,
гПа
погр.,
м
7 марта, вс
вс701:00−8ссв119198 0.0 101321
04:00−10зюз229389 0.0 101421
07:00−10з489394 0.1 1015207
10:00−9зсз489061 0.1 1016340
13:00−6з59840 0.0 1016605
16:00−5юз5108333 0.0 1014831
19:00−5ююз61384100 0.0 1012419
22:00−3юз81680100 0.0 1009757
8 марта, пн
пн801:00−3юз101876100 0.0 1006792
04:00−3юз101784100 0.0 1005891
07:00−3зюз81687100 0.0 1004662
10:00−1зюз8148797 0.0 1005762
13:000юз8118699 0.0 1006927
16:000юз81386100 0.1 10051053
19:00−1юз61487100 0.0 1005638
22:00−3зюз349395 0.2 100769
9 марта, вт
вт901:00−6зсз348993 0.0 100947
04:00−9сз128795 0.0 101021
07:00−9с2389100 0.0 101037
10:00−9с2387100 0.0 1010175
13:00−7с338387 0.0 1009324
16:00−6сз358694 0.0 1010433
19:00−9зсз478989 0.0 1011123
22:00−10зсз4109056 0.0 1013237
10 марта, ср
ср1001:00−11сз499173 0.0 1013238
04:00−12сз599086 0.0 1015314
07:00−16сз5109087 0.0 1017287
10:00−16сз598954 0.0 1019369
13:00−14сз698529 0.0 1021577
16:00−14сз698256 0.0 1022762
19:00−16сз51187100 0.0 1023520
22:00−19сз5109062 0.0 1025364
11 марта, чт
чт1101:00−22ссз49910 0.0 1027275
04:00−23сз37910 0.0 1028186
07:00−24ссз37920 0.0 1029176
10:00−22ссз35900 0.0 1031254
13:00−18ссз35830 0.0 1031350
16:00−16сз34840 0.0 1031329
19:00−18сз33890 0.0 103135
22:00−19зсз34880 0.0 103348